GW2922 Weather Reports


time (UTC)temp
F
wind
direction
speed
knots
gust
knots
rain 1hr
in
rain 24hr
in
rain mn
in
humidity
%
barometer
mb
20260509222633 61 106 0.0 1.7 0.00 0.00 0.00 69 1021.9
20260509222128 61 89 0.9 2.6 0.00 0.00 0.00 68 1022.3
20260509221624 62 8 1.7 2.6 0.00 0.00 0.00 67 1022.3
20260509221120 61 63 0.0 2.6 0.00 0.00 0.00 68 1022.3
20260509220616 61 100 1.7 3.5 0.00 0.00 0.00 69 1022.3
20260509220113 60 54 1.7 5.2 0.00 0.00 0.00 70 1022.3
20260509215609 61 88 0.9 2.6 0.00 0.00 0.00 68 1022.3
20260509215106 62 273 1.7 2.6 0.00 0.00 0.00 68 1022.3
20260509214603 62 30 0.9 2.6 0.00 0.00 0.00 68 1022.3
20260509214100 63 57 1.7 2.6 0.00 0.00 0.00 66 1022.3
20260509213555 62 346 1.7 6.1 0.00 0.00 0.00 67 1022.3
20260509213052 64 307 1.7 1.7 0.00 0.00 0.00 63 1022.3
20260509212550 63 89 0.9 1.7 0.00 0.00 0.00 66 1022.3
20260509212046 62 312 1.7 2.6 0.00 0.00 0.00 67 1022.6
20260509211542 62 119 1.7 6.1 0.00 0.00 0.00 68 1022.6
20260509211039 61 152 1.7 2.6 0.00 0.00 0.00 69 1022.6
20260509210535 62 107 0.0 2.6 0.00 0.00 0.00 67 1022.6
20260509210031 61 99 0.9 2.6 0.00 0.00 0.00 68 1022.6
20260509205526 62 16 1.7 2.6 0.00 0.00 0.00 67 1022.9
20260509205022 62 102 0.9 3.5 0.00 0.00 0.00 68 1022.9
20260509204519 61 174 0.0 5.2 0.00 0.00 0.00 68 1022.6
20260509204015 62 40 1.7 3.5 0.00 0.00 0.00 67 1022.9
20260509203511 62 71 1.7 2.6 0.00 0.00 0.00 66 1022.9
20260509203009 63 54 0.9 1.7 0.00 0.00 0.00 65 1022.6
20260509202503 63 88 1.7 3.5 0.00 0.00 0.00 64 1022.9
20260509201959 63 47 1.7 1.7 0.00 0.00 0.00 63 1022.6
20260509201454 63 69 0.9 2.6 0.00 0.00 0.00 65 1022.6
20260509200952 63 76 1.7 1.7 0.00 0.00 0.00 65 1022.6
20260509200447 64 42 1.7 2.6 0.00 0.00 0.00 63 1022.9
20260509195943 63 112 0.9 1.7 0.00 0.00 0.00 66 1022.9
20260509195439 63 50 0.0 0.9 0.00 0.00 0.00 65 1022.9
20260509194938 62 61 1.7 1.7 0.00 0.00 0.00 68 1022.9
20260509194434 63 48 0.9 3.5 0.00 0.00 0.00 68 1022.9
20260509193931 63 45 3.5 3.5 0.00 0.00 0.00 66 1022.9
20260509193431 63 53 0.9 2.6 0.00 0.00 0.00 67 1022.9
20260509192927 63 101 0.0 0.9 0.00 0.00 0.00 67 1022.9
20260509192424 63 113 0.9 2.6 0.00 0.00 0.00 67 1022.9
20260509191919 65 88 0.0 1.7 0.00 0.00 0.00 63 1023.3
20260509191414 64 101 0.9 2.6 0.00 0.00 0.00 61 1023.3
20260509190911 64 105 0.0 3.5 0.00 0.00 0.00 63 1023.3
20260509190408 65 73 0.9 2.6 0.00 0.00 0.00 61 1023.3
20260509185906 63 118 1.7 5.2 0.00 0.00 0.00 63 1023.3
20260509185403 64 177 4.3 5.2 0.00 0.00 0.00 62 1023.6
20260509184859 63 107 0.0 3.5 0.00 0.00 0.00 66 1023.3
20260509184356 64 113 2.6 2.6 0.00 0.00 0.00 64 1023.3
20260509183854 62 68 0.0 1.7 0.00 0.00 0.00 69 1023.3
20260509183348 61 100 0.0 2.6 0.00 0.00 0.00 70 1023.3
20260509182844 63 102 0.9 1.7 0.00 0.00 0.00 68 1023.3
20260509182342 63 105 1.7 2.6 0.00 0.00 0.00 66 1023.3
20260509181839 63 158 0.9 2.6 0.00 0.00 0.00 66 1023.3
20260509181336 63 154 2.6 3.5 0.00 0.00 0.00 67 1023.6
20260509180833 61 141 0.0 1.7 0.00 0.00 0.00 67 1023.6
20260509180329 63 111 0.9 1.7 0.00 0.00 0.00 67 1023.6
20260509175826 62 107 1.7 3.5 0.00 0.00 0.00 68 1023.6
20260509175322 62 192 3.5 5.2 0.00 0.00 0.00 67 1023.6
20260509174818 62 104 0.9 3.5 0.00 0.00 0.00 68 1023.3
20260509174314 62 143 0.9 3.5 0.00 0.00 0.00 68 1023.6
20260509173810 62 91 0.0 0.9 0.00 0.00 0.00 67 1023.6
20260509173306 61 190 0.0 2.6 0.00 0.00 0.00 70 1023.6
20260509172802 60 94 1.7 2.6 0.00 0.00 0.00 70 1023.6
20260509172259 60 197 2.6 2.6 0.00 0.00 0.00 70 1023.6
20260509171755 60 169 0.9 3.5 0.00 0.00 0.00 70 1023.6
20260509171251 60 108 0.9 0.9 0.00 0.00 0.00 70 1023.6
20260509170747 60 107 0.9 5.2 0.00 0.00 0.00 70 1023.6
20260509170243 59 101 0.9 1.7 0.00 0.00 0.00 70 1024.0
20260509165742 59 101 1.7 2.6 0.00 0.00 0.00 71 1024.0
20260509165238 58 173 2.6 3.5 0.00 0.00 0.00 71 1023.6
20260509164734 57 164 0.9 2.6 0.00 0.00 0.00 72 1023.6
20260509164229 57 100 0.0 0.9 0.00 0.00 0.00 74 1023.6
20260509163727 57 190 1.7 2.6 0.00 0.00 0.00 73 1023.6
20260509163223 57 126 0.0 0.0 0.00 0.00 0.00 73 1024.0
20260509162721 56 111 1.7 3.5 0.00 0.00 0.00 74 1023.6
20260509162216 57 67 0.0 0.9 0.00 0.00 0.00 74 1024.0
20260509161712 56 104 0.0 0.9 0.00 0.00 0.00 74 1024.0
20260509161209 56 113 0.0 0.9 0.00 0.00 0.00 75 1024.0
20260509160704 56 112 0.9 1.7 0.00 0.00 0.00 75 1024.0
20260509160200 55 101 0.9 1.7 0.00 0.00 0.00 76 1024.0
20260509155656 55 188 2.6 2.6 0.00 0.00 0.00 76 1024.0
20260509155152 55 122 1.7 1.7 0.00 0.00 0.00 76 1024.0
20260509154648 55 111 0.0 0.0 0.00 0.00 0.00 77 1024.0
20260509154146 54 138 0.9 2.6 0.00 0.00 0.00 77 1024.3
20260509153642 54 197 0.9 3.5 0.00 0.00 0.00 77 1024.3
20260509153139 54 151 0.9 1.7 0.00 0.00 0.00 78 1024.3
20260509152634 53 122 0.9 1.7 0.00 0.00 0.00 78 1024.0
20260509152132 53 112 1.7 1.7 0.00 0.00 0.00 79 1024.0
20260509151628 53 169 0.9 2.6 0.00 0.00 0.00 79 1024.0
20260509151126 53 131 0.9 1.7 0.00 0.00 0.00 80 1024.0
20260509150624 53 197 1.7 2.6 0.00 0.00 0.00 80 1024.0
20260509150122 53 100 0.0 1.7 0.00 0.00 0.00 81 1024.0
20260509145617 52 112 0.0 0.9 0.00 0.00 0.00 82 1024.3
20260509145113 52 131 0.0 0.9 0.00 0.00 0.00 82 1024.3
20260509144610 52 125 0.9 1.7 0.00 0.00 0.00 82 1024.3
20260509144107 51 167 1.7 2.6 0.00 0.00 0.00 82 1024.3
20260509143604 51 111 0.0 1.7 0.00 0.00 0.00 83 1024.3
20260509143102 51 115 0.0 1.7 0.00 0.00 0.00 83 1024.3
20260509142556 51 110 0.0 0.9 0.00 0.00 0.00 83 1024.3
20260509142053 51 109 0.0 1.7 0.00 0.00 0.00 83 1024.3
20260509141549 51 106 0.0 0.0 0.00 0.00 0.00 83 1024.3
20260509141046 51 140 0.0 0.9 0.00 0.00 0.00 83 1024.3
20260509140543 51 119 0.0 1.7 0.00 0.00 0.00 83 1024.3
20260509140041 51 121 0.0 0.9 0.00 0.00 0.00 84 1024.3
20260509135538 51 139 0.9 0.9 0.00 0.00 0.00 85 1024.7
20260509135035 50 140 0.9 0.9 0.00 0.00 0.00 85 1024.7
20260509134532 50 117 0.0 0.0 0.00 0.00 0.00 86 1024.7
20260509134030 50 119 0.0 0.0 0.00 0.00 0.00 86 1024.7
20260509133526 50 122 0.0 0.0 0.00 0.00 0.00 86 1024.7
20260509133024 50 116 0.0 0.0 0.00 0.00 0.00 86 1024.3
20260509132522 50 114 0.0 0.0 0.00 0.00 0.00 86 1024.7
20260509132020 50 112 0.0 0.0 0.00 0.00 0.00 86 1024.3
20260509131516 49 112 0.0 0.0 0.00 0.00 0.00 86 1024.3
20260509131013 50 112 0.0 0.0 0.00 0.00 0.00 86 1024.3
20260509130508 49 108 0.0 0.0 0.00 0.00 0.00 86 1024.7
20260509130006 49 120 0.0 0.0 0.00 0.00 0.00 86 1024.3
20260509125502 49 122 0.0 0.0 0.00 0.00 0.00 86 1024.3
20260509124958 49 106 0.0 0.0 0.00 0.00 0.00 86 1024.7
20260509124455 49 108 0.0 0.0 0.00 0.00 0.00 86 1024.3
20260509123952 50 107 0.0 0.0 0.00 0.00 0.00 86 1024.3
20260509123450 50 107 0.0 0.0 0.00 0.00 0.00 86 1024.3
20260509122945 50 113 0.0 0.0 0.00 0.00 0.00 86 1024.7
20260509122443 50 113 0.0 0.0 0.00 0.00 0.00 86 1024.3
20260509121939 50 112 0.0 0.0 0.00 0.00 0.00 85 1024.7
20260509121436 50 115 0.0 0.0 0.00 0.00 0.00 85 1024.7
20260509120934 50 112 0.0 0.0 0.00 0.00 0.00 85 1024.7
20260509120432 50 114 0.0 0.0 0.00 0.00 0.00 85 1024.7
20260509115930 50 112 0.0 0.0 0.00 0.00 0.00 85 1024.7
20260509115427 50 107 0.0 0.0 0.00 0.00 0.00 84 1024.7
20260509114924 50 108 0.0 0.0 0.00 0.00 0.00 84 1024.7
20260509114423 50 121 0.0 0.0 0.00 0.00 0.00 84 1024.7
20260509113922 50 133 0.0 0.0 0.00 0.00 0.00 84 1024.7
20260509113419 50 111 0.0 0.0 0.00 0.00 0.00 83 1024.7
20260509112916 50 110 0.0 0.0 0.00 0.00 0.00 83 1024.7
20260509112413 50 108 0.0 1.7 0.00 0.00 0.00 83 1024.7
20260509111910 50 115 1.7 1.7 0.00 0.00 0.00 84 1024.7
20260509111407 50 130 0.9 0.9 0.00 0.00 0.00 84 1024.7
20260509110904 50 131 0.9 0.9 0.00 0.00 0.00 85 1024.7
20260509110400 50 131 0.0 0.9 0.00 0.00 0.00 85 1024.7
20260509105859 50 134 0.0 1.7 0.00 0.00 0.00 84 1024.7
20260509105356 50 115 1.7 2.6 0.00 0.00 0.00 84 1024.7
20260509104853 50 150 0.9 1.7 0.00 0.00 0.00 84 1025.1
20260509104349 50 111 0.9 0.9 0.00 0.00 0.00 84 1024.7
20260509103847 50 124 0.0 0.9 0.00 0.00 0.00 84 1024.7
20260509103344 50 121 0.9 2.6 0.00 0.00 0.00 84 1024.7
20260509102843 50 144 1.7 1.7 0.00 0.00 0.00 83 1024.7
20260509102340 50 162 2.6 2.6 0.00 0.00 0.00 83 1024.7
20260509101835 50 156 1.7 1.7 0.00 0.00 0.00 83 1024.7
20260509101332 50 118 0.9 1.7 0.00 0.00 0.00 84 1024.7
20260509100830 50 125 0.9 1.7 0.00 0.00 0.00 84 1025.1
20260509100327 50 130 0.0 2.6 0.00 0.00 0.00 85 1025.1
20260509095823 49 119 0.0 0.9 0.00 0.00 0.00 86 1025.1
20260509095321 49 136 0.9 0.9 0.00 0.00 0.00 86 1024.7
20260509094818 50 156 0.9 0.9 0.00 0.00 0.00 86 1025.1
20260509094314 50 127 0.0 0.0 0.00 0.00 0.00 86 1025.1
20260509093812 50 113 0.0 0.0 0.00 0.00 0.00 86 1024.7
20260509093309 50 121 0.0 0.0 0.00 0.00 0.00 85 1024.7
20260509092808 50 122 0.0 0.9 0.00 0.00 0.00 85 1025.1
20260509092306 50 123 0.0 0.9 0.00 0.00 0.00 84 1025.1
20260509091803 50 124 0.9 0.9 0.00 0.00 0.00 84 1024.7
20260509091259 50 123 0.0 0.0 0.00 0.00 0.00 83 1024.7
20260509090757 50 123 0.0 0.0 0.00 0.00 0.00 83 1024.7
20260509090254 50 123 0.0 0.0 0.00 0.00 0.00 83 1025.1
20260509085751 50 123 0.0 0.0 0.00 0.00 0.00 83 1025.1
20260509085249 50 123 0.0 0.0 0.00 0.00 0.00 83 1025.1
20260509084745 50 123 0.0 0.0 0.00 0.00 0.00 83 1025.1
20260509084242 50 118 0.0 0.9 0.00 0.00 0.00 82 1025.1
20260509083740 50 118 0.0 0.9 0.00 0.00 0.00 82 1025.1
20260509083236 50 118 0.0 0.0 0.00 0.00 0.00 82 1025.1
20260509082733 50 118 0.0 0.9 0.00 0.00 0.00 82 1025.4
20260509082229 50 113 0.0 0.0 0.00 0.00 0.00 82 1025.4
20260509081726 50 112 0.0 0.0 0.00 0.00 0.00 81 1025.4
20260509081224 50 112 0.0 0.0 0.00 0.00 0.00 81 1025.4
20260509080722 50 112 0.0 0.0 0.00 0.00 0.00 81 1025.1
20260509080219 51 112 0.0 0.0 0.00 0.00 0.00 81 1025.4
20260509075718 51 112 0.0 0.0 0.00 0.00 0.00 81 1025.4
20260509075215 51 112 0.0 0.0 0.00 0.00 0.00 81 1025.4
20260509074711 51 105 0.0 0.0 0.00 0.00 0.00 81 1025.1
20260509074209 51 105 0.0 0.0 0.00 0.00 0.00 81 1025.4
20260509073705 51 105 0.0 0.0 0.00 0.00 0.00 81 1025.1
20260509073201 50 105 0.0 0.0 0.00 0.00 0.00 81 1025.1
20260509072658 50 105 0.0 0.0 0.00 0.00 0.00 81 1025.1
20260509072155 50 105 0.0 0.0 0.00 0.00 0.00 81 1025.1
20260509071652 50 105 0.0 0.0 0.00 0.00 0.00 81 1025.1
20260509071149 50 105 0.0 0.0 0.00 0.00 0.00 81 1025.1
20260509070646 50 105 0.0 0.0 0.00 0.00 0.00 81 1025.1
20260509070142 50 105 0.0 0.0 0.00 0.00 0.00 81 1025.1
20260509065638 50 105 0.0 0.0 0.00 0.00 0.00 81 1025.1
20260509065134 50 105 0.0 0.0 0.00 0.00 0.00 81 1025.1
20260509064631 50 105 0.0 0.0 0.00 0.00 0.00 81 1025.1
20260509064129 50 105 0.0 0.0 0.00 0.00 0.00 82 1025.1
20260509063625 50 105 0.0 0.0 0.00 0.00 0.00 81 1025.1
20260509063117 50 100 0.0 0.0 0.00 0.00 0.00 81 1025.1
20260509062614 50 100 0.0 0.0 0.00 0.00 0.00 81 1025.1
20260509062111 50 112 0.0 0.0 0.00 0.00 0.00 80 1025.1
20260509061608 50 96 0.0 0.0 0.00 0.00 0.00 79 1025.1
20260509061105 51 95 0.0 0.0 0.00 0.00 0.00 79 1025.1
20260509060603 51 96 0.0 0.0 0.00 0.00 0.00 79 1025.1
20260509060058 51 93 0.0 0.9 0.00 0.00 0.00 79 1025.1
20260509055554 51 95 0.0 0.9 0.00 0.00 0.00 79 1025.1
20260509055050 51 100 0.0 0.0 0.00 0.00 0.00 79 1025.1
20260509054547 51 100 0.0 0.0 0.00 0.00 0.00 79 1025.1
20260509054045 51 96 0.0 0.9 0.00 0.00 0.00 79 1025.1
20260509053543 51 93 0.0 0.0 0.00 0.00 0.00 78 1025.4
20260509053040 51 90 0.0 0.0 0.00 0.00 0.00 78 1025.1
20260509052538 51 111 0.0 1.7 0.00 0.00 0.00 79 1025.1
20260509052035 51 94 0.9 0.9 0.00 0.00 0.00 79 1025.1
20260509051533 51 95 0.0 0.0 0.00 0.00 0.00 79 1025.1
20260509051030 51 101 0.0 0.9 0.00 0.00 0.00 79 1025.1
20260509050527 51 92 0.0 1.7 0.00 0.00 0.00 79 1025.1
20260509050023 50 93 0.0 0.9 0.00 0.00 0.00 79 1025.1
20260509045520 51 94 0.0 0.9 0.00 0.00 0.00 79 1025.1
20260509045017 51 94 0.0 0.9 0.00 0.00 0.00 79 1025.1
20260509044515 51 74 0.0 0.0 0.00 0.00 0.00 79 1025.1
20260509044013 51 78 0.0 0.9 0.00 0.00 0.00 78 1024.7
20260509043508 51 99 0.0 0.0 0.00 0.00 0.00 78 1025.1
20260509043005 52 96 0.0 0.9 0.00 0.00 0.00 77 1025.1
20260509042501 52 98 0.0 0.0 0.00 0.00 0.00 77 1025.1
20260509041956 52 97 0.0 0.9 0.00 0.00 0.00 77 1024.7
20260509041454 52 97 0.0 0.0 0.00 0.00 0.00 77 1024.7
20260509040952 52 112 0.0 0.0 0.00 0.00 0.00 77 1024.7
20260509040450 52 96 0.0 0.0 0.00 0.00 0.00 77 1024.7
20260509035946 52 99 0.0 0.0 0.00 0.00 0.00 77 1024.7
20260509035443 52 89 0.0 1.7 0.00 0.00 0.00 76 1025.1
20260509034939 52 94 0.0 0.9 0.00 0.00 0.00 76 1024.7
20260509034437 52 82 0.9 1.7 0.00 0.00 0.00 76 1024.7
20260509033934 52 97 0.0 1.7 0.00 0.00 0.00 76 1024.7
20260509033431 52 60 0.0 0.9 0.00 0.00 0.00 76 1024.7
20260509032928 52 87 0.9 1.7 0.00 0.00 0.00 76 1024.7
20260509032425 53 112 0.0 0.0 0.00 0.00 0.00 76 1024.7
20260509031923 53 94 0.0 0.9 0.00 0.00 0.00 75 1024.7
20260509031420 53 75 0.0 0.9 0.00 0.00 0.00 75 1024.7
20260509030917 53 90 0.9 0.9 0.00 0.00 0.00 74 1024.7
20260509030415 53 80 0.0 0.9 0.00 0.00 0.00 74 1024.3
20260509025912 53 110 0.0 1.7 0.00 0.00 0.00 74 1024.3
20260509025408 53 95 0.0 0.9 0.00 0.00 0.00 73 1024.3
20260509024903 53 115 0.0 0.9 0.00 0.00 0.00 73 1024.7
20260509024359 53 317 0.9 1.7 0.00 0.00 0.00 73 1024.3
20260509023856 54 69 0.9 1.7 0.00 0.00 0.00 71 1024.3
20260509023354 54 103 0.9 1.7 0.00 0.00 0.00 70 1024.0
20260509022850 54 106 0.0 1.7 0.00 0.00 0.00 70 1024.0
20260509022347 54 97 0.9 2.6 0.00 0.00 0.00 69 1024.0
20260509021844 55 344 0.9 2.6 0.00 0.00 0.00 68 1024.0
20260509021341 55 79 0.9 5.2 0.00 0.00 0.00 67 1024.0
20260509020839 55 316 1.7 3.5 0.00 0.00 0.00 67 1024.3
20260509020337 56 355 0.9 1.7 0.00 0.00 0.00 68 1024.0
20260509015834 56 296 1.7 3.5 0.00 0.00 0.00 68 1024.3
20260509015332 56 197 0.9 2.6 0.00 0.00 0.00 68 1024.0
20260509014828 56 180 1.7 2.6 0.00 0.00 0.00 68 1024.0
20260509014326 56 85 0.0 2.6 0.00 0.00 0.00 69 1024.0
20260509013822 56 89 0.9 2.6 0.00 0.00 0.00 69 1024.0
20260509013319 57 32 1.7 2.6 0.00 0.00 0.00 68 1024.0
20260509012815 57 2 0.9 1.7 0.00 0.00 0.00 69 1024.0
20260509012312 57 97 0.9 1.7 0.00 0.00 0.00 69 1024.0
20260509011809 57 65 1.7 2.6 0.00 0.00 0.00 68 1024.0
20260509011306 58 106 0.0 0.9 0.00 0.00 0.00 67 1024.0
20260509010804 58 324 1.7 2.6 0.00 0.00 0.00 66 1024.0
20260509010301 57 271 0.9 1.7 0.00 0.00 0.00 68 1024.0
20260509005758 57 89 0.9 1.7 0.00 0.00 0.00 68 1024.0
20260509005256 57 144 0.0 0.9 0.00 0.00 0.00 68 1024.0
20260509004755 56 117 0.0 2.6 0.00 0.00 0.00 68 1024.0
20260509004252 57 82 0.9 0.9 0.00 0.00 0.00 68 1024.3
20260509003751 56 61 0.9 1.7 0.00 0.00 0.00 68 1024.0
20260509003248 58 17 1.7 2.6 0.00 0.00 0.00 67 1024.0
20260509002745 57 108 0.0 0.9 0.00 0.00 0.00 68 1024.0
20260509002242 57 144 0.0 0.0 0.00 0.00 0.00 68 1024.0
20260509001740 56 53 0.9 1.7 0.00 0.00 0.00 69 1024.3
20260509001235 56 280 1.7 3.5 0.00 0.00 0.00 68 1024.3
20260509000734 56 0 1.7 1.7 0.00 0.00 0.00 68 1024.3
20260509000231 56 81 0.9 2.6 0.00 0.00 0.00 69 1024.3
20260508235728 56 47 1.7 3.5 0.00 0.00 0.00 69 1024.3
20260508235224 56 68 0.9 2.6 0.00 0.00 0.00 69 1024.3
20260508234721 55 81 0.9 1.7 0.00 0.00 0.00 70 1024.0
20260508234217 56 50 0.9 0.9 0.00 0.00 0.00 69 1024.0
20260508233712 56 341 0.9 1.7 0.00 0.00 0.00 69 1024.0
20260508233209 56 99 0.0 0.9 0.00 0.00 0.00 69 1024.0
20260508232706 56 93 0.0 1.7 0.00 0.00 0.00 69 1024.0
20260508232203 56 315 0.9 1.7 0.00 0.00 0.00 68 1024.3
20260508231701 58 14 0.0 0.9 0.00 0.00 0.00 66 1024.0
20260508231157 57 112 0.0 1.7 0.00 0.00 0.00 67 1024.0
20260508230654 58 55 0.9 1.7 0.00 0.00 0.00 66 1024.0
20260508230150 57 67 0.9 0.9 0.00 0.00 0.00 67 1024.0
20260508225649 57 147 0.0 1.7 0.00 0.00 0.00 68 1024.0
20260508225144 56 100 0.9 1.7 0.00 0.00 0.00 69 1024.0
20260508224642 55 355 0.9 2.6 0.00 0.00 0.00 70 1023.6
20260508224140 56 34 0.0 1.7 0.00 0.00 0.00 69 1024.0
20260508223637 56 140 0.9 1.7 0.00 0.00 0.00 69 1023.6
20260508223134 56 205 1.7 2.6 0.00 0.00 0.00 69 1024.0